Location: Dana
(41.8364°N, 106.7042°W)
Time: 18:18:46
(UTC+00:00)

Vanguard 3 - Pass Details

Date: 13 May 2026
Orbit: 507 x 3204 km, 33.3° (Epoch: 9 June)

Event Time Altitude Azimuth Distance (km) Brightness Sun altitude
Rises 21:12:12 0° 237° (WSW) 6,758 12.4 54.1°
Reaches altitude 10° 21:16:34 10° 233° (SW) 5,927 12.3 53.4°
Maximum altitude 21:35:10 56° 163° (SSE) 3,518 11.1 50.3°
Drops below altitude 10° 21:51:06 10° 91° (E) 5,179 11.0 47.5°
Sets 21:54:36 0° 87° (E) 5,896 11.1 46.9°
